Regional Weather Roundup
Issued by NWS

Home | Current Version | Previous Version | Graphics & Text | Print | Product List | Glossary On
Versions: 1 2 3 4 5 6 7 8 9 10 11 12 13 14 15 16 17 18 19 20 21 22 23 24 25 26 27 28 29 30 31 32 33 34 35 36 37 38 39 40 41 42 43 44 45 46 47 48 49 50
000
ASUS43 KLMK 221202
RWRKY
KENTUCKY REGIONAL WEATHER ROUNDUP
NATIONAL WEATHER SERVICE LOUISVILLE KY
800 AM EDT WED OCT 22 2014

NOTE "FAIR" INDICATES FEW OR NO CLOUDS BELOW 12,000 FEET
WITH NO SIGNIFICANT WEATHER AND/OR OBSTRUCTIONS TO VISIBILITY.

KYZ001>023-026-027-061>063-070>075-221300-
WESTERN AND SOUTH CENTRAL KENTUCKY

CITY           SKY/WX    TMP DP  RH WIND       PRES   REMARKS
PADUCAH        CLEAR     42  40  92 NE3       30.25R
HENDERSON      CLEAR    N/A N/A N/A NE6       30.27R
OWENSBORO      CLEAR     42  40  93 CALM      30.27R
HOPKINSVILLE   CLEAR     39  39 100 NE7       30.23R FOG     WCI  34
BOWLING GREEN  CLEAR     42  38  85 NE5       30.25R
GLASGOW        NOT AVBL
$$

KYZ024-025-028>034-038-045-046-053-221300-
NORTH CENTRAL KENTUCKY

CITY           SKY/WX    TMP DP  RH WIND       PRES   REMARKS
LOUISVILLE/SDF MOCLDY    45  38  76 N5        30.26R
LOUISVILLE/LOU PTCLDY    44  38  79 CALM      30.26R
FORT KNOX      CLEAR     39  37  93 N6        30.25R WCI  35
$$

KYZ035>037-039>044-047>052-055>060-089>105-221300-
NORTHEAST KENTUCKY

CITY           SKY/WX    TMP DP  RH WIND       PRES   REMARKS
LEXINGTON      CLOUDY    45  39  79 N6        30.23R
COVINGTON      PTCLDY    43  37  79 N8        30.26R
FRANKFORT      CLOUDY    44  37  76 NW3       30.24R
$$

KYZ054-064>069-076>088-106>120-221300-
SOUTHEAST KENTUCKY

CITY           SKY/WX    TMP DP  RH WIND       PRES   REMARKS
JACKSON        CLOUDY    42  39  89 VRB3      30.20R
LONDON         PTCLDY    42  37  82 N3        30.22R
SOMERSET       PTCLDY    37  37 100 N3        30.24R
MIDDLESBORO    NOT AVBL
MONTICELLO     SUNNY     35  34  96 CALM      30.24R
$$




USA.gov is the U.S. government's official web portal to all federal, state and local government web resources and services.